When you browse on this site, cookies collect data to enhance your experience and personalize the content and advertising you see.
Visit our Privacy Policy to learn more. By continuing to use the site, you agree to this use of cookies and data.
  • In Hungary
  • List of Countries
  • For 7 days
  • Water Temperature
  • Satellite Maps
  • Weather Map
  • News
  • Weather Widgets
  • user-avatar
    Login

    Hourly Weather Kiustendil

    Today, 26 April, Friday

    Time Temperature Precipitation Wind Pressure Humidity
    00:00 +6°C° 0.1 mm 1 mps 627 mmHg 88%
    01:00 +5°C° 0.1 mm 0 mps 627 mmHg 88%
    02:00 +5°C° 0 mm 0 mps 626 mmHg 88%
    03:00 +5°C° 0 mm 0 mps 626 mmHg 87%
    04:00 +4°C° 0 mm 0 mps 626 mmHg 87%
    05:00 +6°C° 0 mm 0 mps 627 mmHg 81%
    06:00 +8°C° 0 mm 0 mps 628 mmHg 74%
    07:00 +10°C° 0 mm 0 mps 628 mmHg 68%
    08:00 +12°C° 0 mm 0 mps 629 mmHg 60%
    09:00 +15°C° 0 mm 1 mps 629 mmHg 52%
    10:00 +18°C° 0 mm 1 mps 630 mmHg 44%
    11:00 +19°C° 0 mm 1 mps 630 mmHg 41%
    12:00 +19°C° 0 mm 1 mps 630 mmHg 39%
    13:00 +19°C° 0 mm 2 mps 630 mmHg 36%
    14:00 +19°C° 0 mm 2 mps 629 mmHg 37%
    15:00 +18°C° 0 mm 2 mps 629 mmHg 37%
    16:00 +18°C° 0 mm 2 mps 628 mmHg 38%
    17:00 +16°C° 0 mm 1 mps 628 mmHg 45%
    18:00 +13°C° 0 mm 1 mps 627 mmHg 51%
    19:00 +11°C° 0 mm 1 mps 626 mmHg 57%
    20:00 +10°C° 0 mm 1 mps 626 mmHg 63%
    21:00 +10°C° 0 mm 1 mps 626 mmHg 69%
    22:00 +9°C° 0 mm 1 mps 625 mmHg 75%
    23:00 +9°C° 0 mm 1 mps 625 mmHg 80%

    Tomorrow, 27 April, Saturday

    Time Temperature Precipitation Wind Pressure Humidity
    00:00 +8°C° 0 mm 1 mps 625 mmHg 84%
    01:00 +8°C° 0 mm 1 mps 625 mmHg 89%
    02:00 +8°C° 0 mm 1 mps 624 mmHg 90%
    03:00 +7°C° 0 mm 1 mps 624 mmHg 91%
    04:00 +7°C° 0 mm 1 mps 623 mmHg 92%
    05:00 +8°C° 0 mm 1 mps 624 mmHg 86%
    06:00 +10°C° 0 mm 1 mps 624 mmHg 79%
    07:00 +11°C° 0 mm 1 mps 625 mmHg 73%
    08:00 +12°C° 0.6 mm 2 mps 625 mmHg 67%
    09:00 +14°C° 0.6 mm 2 mps 625 mmHg 62%
    10:00 +14°C° 0.6 mm 3 mps 625 mmHg 56%
    11:00 +16°C° 0.9 mm 3 mps 625 mmHg 54%
    12:00 +16°C° 0.9 mm 3 mps 625 mmHg 52%
    13:00 +16°C° 0.9 mm 3 mps 625 mmHg 50%
    14:00 +14°C° 2.2 mm 3 mps 624 mmHg 56%
    15:00 +13°C° 2.2 mm 3 mps 623 mmHg 61%
    16:00 +13°C° 2.2 mm 2 mps 622 mmHg 67%
    17:00 +12°C° 3.9 mm 2 mps 622 mmHg 73%
    18:00 +10°C° 3.9 mm 1 mps 622 mmHg 79%
    19:00 +9°C° 3.9 mm 1 mps 621 mmHg 84%
    20:00 +8°C° 1.5 mm 1 mps 622 mmHg 85%
    21:00 +8°C° 1.5 mm 1 mps 622 mmHg 85%
    22:00 +7°C° 1.5 mm 1 mps 622 mmHg 85%
    23:00 +6°C° 0 mm 1 mps 621 mmHg 87%

    Day after tomorrow, 28 April, Sunday

    Time Temperature Precipitation Wind Pressure Humidity
    00:00 +5°C° 0 mm 1 mps 621 mmHg 89%
    01:00 +4°C° 0 mm 1 mps 621 mmHg 91%
    02:00 +4°C° 0 mm 1 mps 621 mmHg 92%
    03:00 +4°C° 0 mm 1 mps 620 mmHg 92%
    04:00 +3°C° 0 mm 1 mps 620 mmHg 93%
    05:00 +4°C° 0.2 mm 1 mps 621 mmHg 88%
    06:00 +5°C° 0.2 mm 1 mps 621 mmHg 83%
    07:00 +6°C° 0.2 mm 1 mps 622 mmHg 78%
    08:00 +6°C° 0.7 mm 2 mps 622 mmHg 73%
    09:00 +7°C° 0.7 mm 2 mps 622 mmHg 67%
    10:00 +8°C° 0.7 mm 3 mps 623 mmHg 62%
    11:00 +8°C° 0.6 mm 3 mps 623 mmHg 62%
    12:00 +8°C° 0.6 mm 3 mps 623 mmHg 62%
    13:00 +7°C° 0.6 mm 4 mps 622 mmHg 62%
    14:00 +8°C° 0.1 mm 3 mps 622 mmHg 60%
    15:00 +8°C° 0.1 mm 3 mps 622 mmHg 59%
    16:00 +8°C° 0.1 mm 3 mps 622 mmHg 57%
    17:00 +6°C° 0 mm 2 mps 622 mmHg 64%
    18:00 +4°C° 0 mm 2 mps 621 mmHg 70%
    19:00 +4°C° 0 mm 1 mps 621 mmHg 77%
    20:00 +3°C° 0 mm 1 mps 621 mmHg 79%
    21:00 +2°C° 0 mm 1 mps 621 mmHg 81%
    22:00 +2°C° 0 mm 1 mps 621 mmHg 83%
    23:00 +2°C° 0 mm 1 mps 621 mmHg 82%

    29 April, Monday

    Time Temperature Precipitation Wind Pressure Humidity
    00:00 +1°C° 0 mm 1 mps 621 mmHg 82%
    01:00 +1°C° 0 mm 1 mps 621 mmHg 81%
    02:00 +1°C° 0 mm 1 mps 620 mmHg 82%
    03:00 +1°C° 0 mm 1 mps 620 mmHg 82%
    04:00 0°C° 0 mm 0 mps 620 mmHg 83%
    05:00 +1°C° 0 mm 0 mps 621 mmHg 78%
    06:00 +3°C° 0 mm 0 mps 621 mmHg 73%
    07:00 +4°C° 0 mm 0 mps 622 mmHg 68%
    08:00 +6°C° 0.1 mm 0 mps 622 mmHg 64%
    09:00 +8°C° 0.1 mm 1 mps 623 mmHg 60%
    10:00 +10°C° 0.1 mm 1 mps 623 mmHg 55%
    11:00 +10°C° 0.6 mm 1 mps 623 mmHg 55%
    12:00 +10°C° 0.6 mm 1 mps 622 mmHg 55%
    13:00 +9°C° 0.6 mm 2 mps 622 mmHg 56%
    14:00 +10°C° 0.7 mm 1 mps 622 mmHg 57%
    15:00 +9°C° 0.7 mm 1 mps 621 mmHg 59%
    16:00 +9°C° 0.7 mm 1 mps 621 mmHg 60%
    17:00 +8°C° 0.3 mm 1 mps 621 mmHg 65%
    18:00 +7°C° 0.3 mm 1 mps 620 mmHg 70%
    19:00 +6°C° 0.3 mm 1 mps 620 mmHg 75%
    20:00 +5°C° 0.2 mm 1 mps 620 mmHg 76%
    21:00 +5°C° 0.2 mm 1 mps 620 mmHg 77%
    22:00 +4°C° 0.2 mm 0 mps 620 mmHg 78%
    23:00 +3°C° 0.1 mm 0 mps 620 mmHg 79%

    30 April, Tuesday

    Time Temperature Precipitation Wind Pressure Humidity
    00:00 +4°C° 0.1 mm 1 mps 620 mmHg 81%
    01:00 +4°C° 0.1 mm 1 mps 620 mmHg 83%
    02:00 +3°C° 0 mm 1 mps 620 mmHg 84%
    03:00 +3°C° 0 mm 1 mps 619 mmHg 86%
    04:00 +2°C° 0 mm 1 mps 619 mmHg 87%
    05:00 +3°C° 0 mm 0 mps 619 mmHg 82%
    06:00 +4°C° 0 mm 0 mps 620 mmHg 77%
    07:00 +5°C° 0 mm 0 mps 620 mmHg 72%
    08:00 +8°C° 0.1 mm 1 mps 620 mmHg 67%
    09:00 +8°C° 0.1 mm 2 mps 621 mmHg 62%
    10:00 +9°C° 0.1 mm 2 mps 621 mmHg 57%
    11:00 +9°C° 0.8 mm 2 mps 620 mmHg 62%
    12:00 +8°C° 0.8 mm 2 mps 620 mmHg 66%
    13:00 +8°C° 0.8 mm 3 mps 619 mmHg 71%
    14:00 +7°C° 1.9 mm 3 mps 619 mmHg 75%
    15:00 +5°C° 1.9 mm 3 mps 619 mmHg 79%
    16:00 +4°C° 1.9 mm 3 mps 618 mmHg 83%
    17:00 +4°C° 0.4 mm 2 mps 618 mmHg 85%
    18:00 +3°C° 0.4 mm 2 mps 618 mmHg 88%
    19:00 +2°C° 0.4 mm 1 mps 618 mmHg 90%
    20:00 +2°C° 0 mm 1 mps 618 mmHg 90%
    21:00 +1°C° 0 mm 1 mps 618 mmHg 90%
    22:00 +1°C° 0 mm 1 mps 618 mmHg 90%
    23:00 +1°C° 0 mm 1 mps 618 mmHg 90%

    1 May, Wednesday

    Time Temperature Precipitation Wind Pressure Humidity
    00:00 0°C° 0 mm 1 mps 618 mmHg 90%
    01:00 0°C° 0 mm 1 mps 617 mmHg 89%
    02:00 0°C° 0 mm 1 mps 617 mmHg 90%
    03:00 0°C° 0 mm 1 mps 617 mmHg 90%
    04:00 0°C° 0 mm 1 mps 617 mmHg 90%
    05:00 +1°C° 0 mm 1 mps 618 mmHg 85%
    06:00 +3°C° 0 mm 1 mps 618 mmHg 81%
    07:00 +4°C° 0 mm 1 mps 619 mmHg 76%
    08:00 +5°C° 0 mm 1 mps 619 mmHg 72%
    09:00 +6°C° 0 mm 1 mps 619 mmHg 68%
    10:00 +6°C° 0 mm 2 mps 619 mmHg 64%
    11:00 +7°C° 0.2 mm 2 mps 619 mmHg 62%
    12:00 +8°C° 0.2 mm 2 mps 620 mmHg 60%
    13:00 +9°C° 0.2 mm 2 mps 620 mmHg 58%
    14:00 +8°C° 0.8 mm 2 mps 620 mmHg 61%
    15:00 +8°C° 0.8 mm 2 mps 619 mmHg 64%
    16:00 +7°C° 0.8 mm 2 mps 619 mmHg 67%
    17:00 +6°C° 0.7 mm 2 mps 619 mmHg 74%
    18:00 +6°C° 0.7 mm 1 mps 619 mmHg 80%
    19:00 +4°C° 0.7 mm 1 mps 618 mmHg 87%
    20:00 +4°C° 0.1 mm 1 mps 618 mmHg 89%
    21:00 +3°C° 0.1 mm 1 mps 618 mmHg 91%
    22:00 +2°C° 0.1 mm 1 mps 618 mmHg 93%
    23:00 +1°C° 0 mm 1 mps 618 mmHg 93%
    Show more